START_TIME,STEP,MOV.,A46,t_acc.,A13,t_acc.,M47,t_acc.,A17,t_acc.,A28,t_acc.,M38,t_acc.
1980-11-16 00:00:14.100 ,3,0,,0,0.,4.8,0.,4.8,,0,0.,4.8,0.,4.8
1980-11-16 00:00:18.900 ,3,0,,0,0.,4.8,0.,4.8,,0,0.,4.8,0.,4.8
1980-11-16 00:00:23.700 ,3,0,,0,0.,4.8,0.,4.8,,0,0.,4.8,0.,4.8
1980-11-16 00:00:28.500 ,3,0,,0,0.,4.8,0.,4.8,,0,0.,4.8,0.,4.8
1980-11-16 00:00:33.300 ,3,0,,0,0.,4.8,0.,4.8,,0,0.,4.8,0.,4.8
1980-11-16 00:00:38.100 ,4,0,,0,0.,4.8,0.,4.8,,0,0.,4.8,0.,4.8
1980-11-16 00:00:42.900 ,4,0,,0,0.,4.8,0.,4.8,,0,0.,4.8,0.,4.8
1980-11-16 00:00:47.700 ,4,0,,0,0.,4.8,0.,4.8,,0,0.,4.8,0.,4.8
1980-11-16 00:00:52.500 ,4,0,,0,0.,4.8,0.,4.8,,0,0.,4.8,0.,4.8
1980-11-16 00:00:57.300 ,4,0,,0,0.,4.8,0.,4.8,,0,0.,4.8,0.,4.8
1980-11-16 00:01:02.100 ,4,0,,0,0.,4.8,0.,4.8,,0,0.,4.8,0.,4.8
1980-11-16 00:01:06.900 ,4,0,,0,0.,4.8,0.,4.8,,0,0.,4.8,0.,4.8
1980-11-16 00:01:11.700 ,4,0,,0,0.,4.8,0.,4.8,,0,0.,4.8,0.,4.8
1980-11-16 00:01:16.500 ,4,0,,0,0.,4.8,0.,4.8,,0,0.,4.8,0.,4.8
1980-11-16 00:01:21.300 ,4,0,,0,0.,4.8,0.,4.8,,0,0.,4.8,0.,4.8
1980-11-16 00:01:26.100 ,5,0,,0,1.,4.8,0.,4.8,,0,0.,4.8,0.,4.8
1980-11-16 00:01:30.900 ,5,0,,0,0.,4.8,0.,4.8,,0,0.,4.8,0.,4.8
1980-11-16 00:01:35.700 ,5,0,,0,0.,4.8,0.,4.8,,0,0.,4.8,0.,4.8
1980-11-16 00:01:40.500 ,5,0,,0,0.,4.8,0.,4.8,,0,0.,4.8,0.,4.8
1980-11-16 00:01:45.300 ,5,0,,0,0.,4.8,0.,4.8,,0,0.,4.8,0.,4.8
1980-11-16 00:01:50.100 ,5,0,,0,0.,4.8,0.,4.8,,0,0.,4.8,0.,4.8
1980-11-16 00:01:54.900 ,5,0,,0,0.,4.8,0.,4.8,,0,0.,4.8,0.,4.8
1980-11-16 00:01:59.700 ,5,0,,0,0.,4.8,0.,4.8,,0,0.,4.8,0.,4.8
1980-11-16 00:02:04.500 ,5,0,,0,0.,4.8,0.,4.8,,0,0.,4.8,0.,4.8
1980-11-16 00:02:09.300 ,5,0,,0,0.,4.8,0.,4.8,,0,0.,4.8,0.,4.8
1980-11-16 00:02:14.100 ,6,0,,0,0.,4.8,0.,4.8,,0,0.,4.8,0.,4.8
1980-11-16 00:02:18.900 ,6,0,,0,0.,4.8,0.,4.8,,0,0.,4.8,0.,4.8
1980-11-16 00:02:23.700 ,6,0,,0,0.,4.8,0.,4.8,,0,0.,4.8,0.,4.8
1980-11-16 00:02:28.500 ,6,0,,0,0.,4.8,0.,4.8,,0,0.,4.8,0.,4.8
1980-11-16 00:02:33.300 ,6,0,,0,0.,4.8,0.,4.8,,0,0.,4.8,0.,4.8
1980-11-16 00:02:38.100 ,6,0,,0,0.,4.8,0.,4.8,,0,0.,4.8,0.,4.8
1980-11-16 00:02:42.900 ,6,0,,0,0.,4.8,0.,4.8,,0,0.,4.8,0.,4.8
1980-11-16 00:02:47.700 ,6,0,,0,0.,4.8,0.,4.8,,0,0.,4.8,0.,4.8
1980-11-16 00:02:52.500 ,6,0,,0,0.,4.8,0.,4.8,,0,0.,4.8,0.,4.8
1980-11-16 00:02:57.300 ,6,0,,0,0.,4.8,0.,4.8,,0,0.,4.8,0.,4.8
1980-11-16 00:03:02.100 ,7,0,,0,0.,4.8,1.,4.8,,0,0.,4.8,0.,4.8
1980-11-16 00:03:06.900 ,7,0,,0,0.,4.8,0.,4.8,,0,0.,4.8,0.,4.8
1980-11-16 00:03:11.700 ,7,0,,0,0.,4.8,0.,4.8,,0,0.,4.8,0.,4.8
1980-11-16 00:03:16.500 ,7,0,,0,0.,4.8,0.,4.8,,0,0.,4.8,0.,4.8
1980-11-16 00:03:21.300 ,7,0,,0,0.,4.8,0.,4.8,,0,0.,4.8,0.,4.8
1980-11-16 00:03:26.100 ,7,0,,0,0.,4.8,0.,4.8,,0,0.,4.8,0.,4.8
1980-11-16 00:03:30.900 ,7,0,,0,0.,4.8,0.,4.8,,0,0.,4.8,0.,4.8
1980-11-16 00:03:35.700 ,7,0,,0,0.,4.8,0.,4.8,,0,0.,4.8,0.,4.8
1980-11-16 00:03:40.500 ,7,0,,0,0.,4.8,0.,4.8,,0,0.,4.8,0.,4.8
1980-11-16 00:03:45.300 ,7,0,,0,0.,4.8,0.,4.8,,0,0.,4.8,0.,4.8
1980-11-16 00:03:50.100 ,7,0,,0,0.,4.8,0.,4.8,,0,0.,4.8,0.,4.8
1980-11-16 00:03:54.900 ,7,0,,0,0.,4.8,0.,4.8,,0,0.,4.8,0.,4.8
1980-11-16 00:03:59.700 ,7,0,,0,0.,4.8,0.,4.8,,0,0.,4.8,0.,4.8
1980-11-16 00:04:04.500 ,7,0,,0,0.,4.8,0.,4.8,,0,0.,4.8,0.,4.8
1980-11-16 00:04:09.300 ,7,0,,0,0.,4.8,0.,4.8,,0,0.,4.8,0.,4.8
1980-11-16 00:04:14.100 ,7,0,,0,0.,4.8,0.,4.8,,0,0.,4.8,0.,4.8
1980-11-16 00:04:18.900 ,7,0,,0,0.,4.8,0.,4.8,,0,0.,4.8,0.,4.8
1980-11-16 00:04:23.700 ,7,0,,0,0.,4.8,0.,4.8,,0,0.,4.8,0.,4.8
1980-11-16 00:04:28.500 ,7,0,,0,0.,4.8,0.,4.8,,0,0.,4.8,0.,4.8
1980-11-16 00:04:33.300 ,7,0,,0,0.,4.8,0.,4.8,,0,0.,4.8,0.,4.8
1980-11-16 00:04:38.100 ,6,0,,0,0.,4.8,0.,4.8,,0,0.,4.8,0.,4.8
1980-11-16 00:04:42.900 ,6,0,,0,0.,4.8,0.,4.8,,0,0.,4.8,0.,4.8
1980-11-16 00:04:47.700 ,6,0,,0,0.,4.8,0.,4.8,,0,0.,4.8,0.,4.8
1980-11-16 00:04:52.500 ,6,0,,0,0.,4.8,0.,4.8,,0,0.,4.8,0.,4.8
1980-11-16 00:04:57.300 ,6,0,,0,0.,4.8,0.,4.8,,0,0.,4.8,0.,4.8
1980-11-16 00:05:02.100 ,6,0,,0,0.,4.8,0.,4.8,,0,0.,4.8,0.,4.8
1980-11-16 00:05:06.900 ,6,0,,0,0.,4.8,0.,4.8,,0,0.,4.8,0.,4.8
1980-11-16 00:05:11.700 ,6,0,,0,0.,4.8,0.,4.8,,0,0.,4.8,0.,4.8
1980-11-16 00:05:16.500 ,6,0,,0,0.,4.8,0.,4.8,,0,0.,4.8,0.,4.8
1980-11-16 00:05:21.300 ,6,0,,0,0.,4.8,0.,4.8,,0,0.,4.8,0.,4.8
1980-11-16 00:05:26.100 ,5,0,,0,0.,4.8,0.,4.8,,0,0.,4.8,0.,4.8
1980-11-16 00:05:30.900 ,5,0,,0,0.,4.8,0.,4.8,,0,0.,4.8,0.,4.8
1980-11-16 00:05:35.700 ,5,0,,0,0.,4.8,0.,4.8,,0,0.,4.8,0.,4.8
1980-11-16 00:05:40.500 ,5,0,,0,0.,4.8,0.,4.8,,0,0.,4.8,0.,4.8
1980-11-16 00:05:45.300 ,5,0,,0,0.,4.8,0.,4.8,,0,0.,4.8,0.,4.8
1980-11-16 00:05:50.100 ,5,0,,0,0.,4.8,0.,4.8,,0,0.,4.8,0.,4.8
1980-11-16 00:05:54.900 ,5,0,,0,0.,4.8,0.,4.8,,0,0.,4.8,0.,4.8
1980-11-16 00:05:59.700 ,5,0,,0,0.,4.8,0.,4.8,,0,0.,4.8,0.,4.8
1980-11-16 00:06:04.500 ,5,0,,0,0.,4.8,0.,4.8,,0,0.,4.8,0.,4.8
1980-11-16 00:06:09.300 ,5,0,,0,0.,4.8,0.,4.8,,0,0.,4.8,0.,4.8
1980-11-16 00:06:14.100 ,0,0,,0,0.,4.8,0.,4.8,,0,0.,4.8,0.,4.8
1980-11-16 00:06:18.900 ,0,0,,0,0.,4.8,0.,4.8,,0,0.,4.8,0.,4.8
1980-11-16 00:06:23.700 ,0,0,,0,0.,4.8,0.,4.8,,0,0.,4.8,0.,4.8
1980-11-16 00:06:28.500 ,0,0,,0,0.,4.8,0.,4.8,,0,0.,4.8,0.,4.8
1980-11-16 00:06:33.300 ,0,0,,0,0.,4.8,0.,4.8,,0,0.,4.8,0.,4.8
1980-11-16 00:07:02.100 ,3,0,,0,0.,4.8,0.,4.8,,0,0.,4.8,0.,4.8
1980-11-16 00:07:06.900 ,3,0,,0,0.,4.8,0.,4.8,,0,0.,4.8,0.,4.8
1980-11-16 00:07:11.700 ,3,0,,0,0.,4.8,0.,4.8,,0,0.,4.8,0.,4.8
1980-11-16 00:07:16.500 ,3,0,,0,0.,4.8,0.,4.8,,0,0.,4.8,0.,4.8
1980-11-16 00:07:21.300 ,3,0,,0,0.,4.8,0.,4.8,,0,0.,4.8,0.,4.8
1980-11-16 00:07:26.100 ,3,0,,0,0.,4.8,0.,4.8,,0,0.,4.8,0.,4.8
1980-11-16 00:07:30.900 ,3,0,,0,0.,4.8,0.,4.8,,0,0.,4.8,0.,4.8
1980-11-16 00:07:35.700 ,3,0,,0,0.,4.8,0.,4.8,,0,0.,4.8,0.,4.8
1980-11-16 00:07:40.500 ,3,0,,0,0.,4.8,0.,4.8,,0,0.,4.8,0.,4.8
1980-11-16 00:07:45.300 ,3,0,,0,0.,4.8,0.,4.8,,0,0.,4.8,0.,4.8
1980-11-16 00:07:50.100 ,2,0,,0,0.,4.8,0.,4.8,,0,0.,4.8,0.,4.8
1980-11-16 00:07:54.900 ,2,0,,0,0.,4.8,0.,4.8,,0,0.,4.8,0.,4.8
1980-11-16 00:07:59.700 ,2,0,,0,0.,4.8,0.,4.8,,0,0.,4.8,0.,4.8
1980-11-16 00:08:04.500 ,2,0,,0,0.,4.8,0.,4.8,,0,0.,4.8,0.,4.8
1980-11-16 00:08:09.300 ,2,0,,0,0.,4.8,0.,4.8,,0,0.,4.8,0.,4.8
1980-11-16 00:08:14.100 ,2,0,,0,0.,4.8,0.,4.8,,0,0.,4.8,0.,4.8
1980-11-16 00:08:18.900 ,2,0,,0,0.,4.8,0.,4.8,,0,0.,4.8,0.,4.8
1980-11-16 00:08:23.700 ,2,0,,0,0.,4.8,0.,4.8,,0,0.,4.8,0.,4.8
1980-11-16 00:08:28.500 ,2,0,,0,0.,4.8,0.,4.8,,0,0.,4.8,0.,4.8
1980-11-16 00:08:33.300 ,2,0,,0,0.,4.8,0.,4.8,,0,0.,4.8,0.,4.8
1980-11-16 00:08:38.100 ,1,0,,0,0.,4.8,0.,4.8,,0,0.,4.8,0.,4.8
1980-11-16 00:08:42.900 ,1,0,,0,0.,4.8,0.,4.8,,0,0.,4.8,0.,4.8
1980-11-16 00:08:47.700 ,1,0,,0,0.,4.8,0.,4.8,,0,0.,4.8,0.,4.8
1980-11-16 00:08:52.500 ,1,0,,0,0.,4.8,0.,4.8,,0,0.,4.8,0.,4.8
1980-11-16 00:08:57.300 ,1,0,,0,0.,4.8,0.,4.8,,0,0.,4.8,0.,4.8
1980-11-16 00:09:02.100 ,1,0,,0,0.,4.8,0.,4.8,,0,0.,4.8,0.,4.8
1980-11-16 00:09:06.900 ,1,0,,0,0.,4.8,0.,4.8,,0,0.,4.8,0.,4.8
1980-11-16 00:09:11.700 ,1,0,,0,0.,4.8,0.,4.8,,0,0.,4.8,0.,4.8
1980-11-16 00:09:16.500 ,1,0,,0,0.,4.8,0.,4.8,,0,0.,4.8,0.,4.8
1980-11-16 00:09:21.300 ,1,0,,0,0.,4.8,0.,4.8,,0,0.,4.8,0.,4.8
1980-11-16 00:09:26.100 ,0,0,,0,0.,4.8,0.,4.8,,0,0.,4.8,0.,4.8
1980-11-16 00:09:30.900 ,0,0,,0,0.,4.8,0.,4.8,,0,0.,4.8,0.,4.8
1980-11-16 00:09:35.700 ,0,0,,0,0.,4.8,0.,4.8,,0,0.,4.8,0.,4.8
1980-11-16 00:09:40.500 ,0,0,,0,0.,4.8,0.,4.8,,0,0.,4.8,0.,4.8
1980-11-16 00:09:45.300 ,0,0,,0,0.,4.8,0.,4.8,,0,0.,4.8,0.,4.8
1980-11-16 00:09:50.100 ,0,0,,0,0.,4.8,0.,4.8,,0,0.,4.8,0.,4.8
1980-11-16 00:09:54.900 ,0,0,,0,0.,4.8,0.,4.8,,0,0.,4.8,0.,4.8
1980-11-16 00:09:59.700 ,0,0,,0,0.,4.8,0.,4.8,,0,0.,4.8,0.,4.8
1980-11-16 00:10:04.500 ,0,0,,0,0.,4.8,0.,4.8,,0,0.,4.8,0.,4.8
1980-11-16 00:10:09.300 ,0,0,,0,0.,4.8,0.,4.8,,0,0.,4.8,0.,4.8
1980-11-16 00:10:14.100 ,0,0,,0,0.,4.8,0.,4.8,,0,0.,4.8,0.,4.8
1980-11-16 00:10:18.900 ,0,0,,0,0.,4.8,0.,4.8,,0,0.,4.8,0.,4.8
1980-11-16 00:10:23.700 ,0,0,,0,0.,4.8,0.,4.8,,0,0.,4.8,0.,4.8
1980-11-16 00:10:28.500 ,0,0,,0,0.,4.8,0.,4.8,,0,0.,4.8,0.,4.8
1980-11-16 00:10:33.300 ,0,0,,0,0.,4.8,0.,4.8,,0,0.,4.8,0.,4.8
1980-11-16 00:10:38.100 ,0,0,,0,0.,4.8,0.,4.8,,0,0.,4.8,0.,4.8
1980-11-16 00:10:42.900 ,0,0,,0,0.,4.8,0.,4.8,,0,0.,4.8,0.,4.8
1980-11-16 00:10:47.700 ,0,0,,0,1.,4.8,0.,4.8,,0,0.,4.8,0.,4.8
1980-11-16 00:10:52.500 ,0,0,,0,0.,4.8,0.,4.8,,0,0.,4.8,0.,4.8
1980-11-16 00:10:57.300 ,0,0,,0,0.,4.8,0.,4.8,,0,0.,4.8,0.,4.8
1980-11-16 00:11:02.100 ,1,0,,0,0.,4.8,0.,4.8,,0,0.,4.8,0.,4.8
1980-11-16 00:11:06.900 ,1,0,,0,1.,4.8,0.,4.8,,0,0.,4.8,0.,4.8
1980-11-16 00:11:11.700 ,1,0,,0,0.,4.8,0.,4.8,,0,0.,4.8,0.,4.8
1980-11-16 00:11:16.500 ,1,0,,0,0.,4.8,0.,4.8,,0,0.,4.8,0.,4.8
1980-11-16 00:11:21.300 ,1,0,,0,0.,4.8,0.,4.8,,0,0.,4.8,0.,4.8
1980-11-16 00:11:26.100 ,1,0,,0,0.,4.8,0.,4.8,,0,0.,4.8,0.,4.8
1980-11-16 00:11:30.900 ,1,0,,0,0.,4.8,0.,4.8,,0,0.,4.8,0.,4.8
1980-11-16 00:11:35.700 ,1,0,,0,0.,4.8,0.,4.8,,0,0.,4.8,0.,4.8
1980-11-16 00:11:40.500 ,1,0,,0,0.,4.8,0.,4.8,,0,0.,4.8,0.,4.8
1980-11-16 00:11:45.300 ,1,0,,0,0.,4.8,0.,4.8,,0,0.,4.8,0.,4.8
1980-11-16 00:11:50.100 ,2,0,,0,0.,4.8,0.,4.8,,0,0.,4.8,0.,4.8
1980-11-16 00:11:54.900 ,2,0,,0,0.,4.8,0.,4.8,,0,0.,4.8,0.,4.8
1980-11-16 00:11:59.700 ,2,0,,0,0.,4.8,0.,4.8,,0,0.,4.8,0.,4.8
1980-11-16 00:12:04.500 ,2,0,,0,0.,4.8,0.,4.8,,0,0.,4.8,0.,4.8
1980-11-16 00:12:09.300 ,2,0,,0,0.,4.8,0.,4.8,,0,0.,4.8,0.,4.8
1980-11-16 00:12:14.100 ,2,0,,0,0.,4.8,0.,4.8,,0,0.,4.8,0.,4.8
1980-11-16 00:12:18.900 ,2,0,,0,0.,4.8,0.,4.8,,0,0.,4.8,0.,4.8
1980-11-16 00:12:23.700 ,2,0,,0,0.,4.8,0.,4.8,,0,0.,4.8,0.,4.8
1980-11-16 00:12:28.500 ,2,0,,0,0.,4.8,0.,4.8,,0,0.,4.8,0.,4.8
1980-11-16 00:12:33.300 ,2,0,,0,0.,4.8,0.,4.8,,0,0.,4.8,0.,4.8
1980-11-16 00:12:38.100 ,3,0,,0,0.,4.8,0.,4.8,,0,0.,4.8,0.,4.8
1980-11-16 00:12:42.900 ,3,0,,0,0.,4.8,0.,4.8,,0,0.,4.8,0.,4.8
1980-11-16 00:12:47.700 ,3,0,,0,0.,4.8,0.,4.8,,0,0.,4.8,0.,4.8
1980-11-16 00:12:52.500 ,3,0,,0,0.,4.8,0.,4.8,,0,0.,4.8,0.,4.8
1980-11-16 00:12:57.300 ,3,0,,0,0.,4.8,0.,4.8,,0,0.,4.8,0.,4.8
1980-11-16 00:13:02.100 ,3,0,,0,0.,4.8,0.,4.8,,0,0.,4.8,0.,4.8
1980-11-16 00:13:06.900 ,3,0,,0,0.,4.8,0.,4.8,,0,0.,4.8,0.,4.8
1980-11-16 00:13:11.700 ,3,0,,0,0.,4.8,0.,4.8,,0,0.,4.8,0.,4.8
1980-11-16 00:13:16.500 ,3,0,,0,0.,4.8,0.,4.8,,0,0.,4.8,0.,4.8
1980-11-16 00:13:21.300 ,3,0,,0,0.,4.8,0.,4.8,,0,0.,4.8,0.,4.8
1980-11-16 00:13:26.100 ,4,0,,0,0.,4.8,0.,4.8,,0,0.,4.8,0.,4.8
1980-11-16 00:13:30.900 ,4,0,,0,0.,4.8,0.,4.8,,0,0.,4.8,0.,4.8
1980-11-16 00:13:35.700 ,4,0,,0,0.,4.8,0.,4.8,,0,0.,4.8,0.,4.8
1980-11-16 00:13:40.500 ,4,0,,0,0.,4.8,0.,4.8,,0,0.,4.8,0.,4.8
1980-11-16 00:13:45.300 ,4,0,,0,0.,4.8,0.,4.8,,0,0.,4.8,0.,4.8
1980-11-16 00:13:50.100 ,4,0,,0,0.,4.8,0.,4.8,,0,0.,4.8,0.,4.8
1980-11-16 00:13:54.900 ,4,0,,0,0.,4.8,0.,4.8,,0,0.,4.8,0.,4.8
1980-11-16 00:13:59.700 ,4,0,,0,0.,4.8,0.,4.8,,0,0.,4.8,0.,4.8
1980-11-16 00:14:04.500 ,4,0,,0,0.,4.8,0.,4.8,,0,0.,4.8,0.,4.8
1980-11-16 00:14:09.300 ,4,0,,0,0.,4.8,0.,4.8,,0,0.,4.8,0.,4.8
1980-11-16 00:14:14.100 ,5,0,,0,0.,4.8,0.,4.8,,0,0.,4.8,0.,4.8
1980-11-16 00:14:18.900 ,5,0,,0,0.,4.8,0.,4.8,,0,0.,4.8,0.,4.8
1980-11-16 00:14:23.700 ,5,0,,0,0.,4.8,0.,4.8,,0,0.,4.8,0.,4.8
1980-11-16 00:14:28.500 ,5,0,,0,0.,4.8,0.,4.8,,0,0.,4.8,0.,4.8
1980-11-16 00:14:33.300 ,5,0,,0,0.,4.8,0.,4.8,,0,0.,4.8,0.,4.8
1980-11-16 00:14:38.100 ,5,0,,0,0.,4.8,0.,4.8,,0,0.,4.8,0.,4.8
1980-11-16 00:14:42.900 ,5,0,,0,1.,4.8,0.,4.8,,0,0.,4.8,0.,4.8
1980-11-16 00:14:47.700 ,5,0,,0,0.,4.8,0.,4.8,,0,0.,4.8,0.,4.8
1980-11-16 00:14:52.500 ,5,0,,0,0.,4.8,0.,4.8,,0,0.,4.8,0.,4.8
1980-11-16 00:14:57.300 ,5,0,,0,1.,4.8,0.,4.8,,0,0.,4.8,0.,4.8
1980-11-16 00:15:02.100 ,6,0,,0,0.,4.8,0.,4.8,,0,0.,4.8,0.,4.8
1980-11-16 00:15:06.900 ,6,0,,0,0.,4.8,0.,4.8,,0,0.,4.8,0.,4.8
1980-11-16 00:15:11.700 ,6,0,,0,0.,4.8,0.,4.8,,0,0.,4.8,0.,4.8
1980-11-16 00:15:16.500 ,6,0,,0,0.,4.8,0.,4.8,,0,0.,4.8,0.,4.8
1980-11-16 00:15:21.300 ,6,0,,0,0.,4.8,0.,4.8,,0,0.,4.8,0.,4.8
1980-11-16 00:15:26.100 ,6,0,,0,0.,4.8,0.,4.8,,0,0.,4.8,0.,4.8
1980-11-16 00:15:30.900 ,6,0,,0,0.,4.8,0.,4.8,,0,0.,4.8,0.,4.8
1980-11-16 00:15:35.700 ,6,0,,0,0.,4.8,0.,4.8,,0,0.,4.8,0.,4.8
1980-11-16 00:15:40.500 ,6,0,,0,0.,4.8,0.,4.8,,0,0.,4.8,0.,4.8
1980-11-16 00:15:45.300 ,6,0,,0,0.,4.8,0.,4.8,,0,0.,4.8,0.,4.8
1980-11-16 00:15:50.100 ,7,0,,0,0.,4.8,0.,4.8,,0,0.,4.8,0.,4.8
1980-11-16 00:15:54.900 ,7,0,,0,0.,4.8,0.,4.8,,0,0.,4.8,0.,4.8
1980-11-16 00:15:59.700 ,7,0,,0,0.,4.8,0.,4.8,,0,0.,4.8,0.,4.8
1980-11-16 00:16:04.500 ,7,0,,0,0.,4.8,0.,4.8,,0,0.,4.8,0.,4.8
1980-11-16 00:16:09.300 ,7,0,,0,0.,4.8,0.,4.8,,0,0.,4.8,0.,4.8
1980-11-16 00:16:14.100 ,7,0,,0,0.,4.8,0.,4.8,,0,0.,4.8,0.,4.8
1980-11-16 00:16:18.900 ,7,0,,0,0.,4.8,0.,4.8,,0,0.,4.8,0.,4.8
1980-11-16 00:16:23.700 ,7,0,,0,0.,4.8,0.,4.8,,0,0.,4.8,0.,4.8
1980-11-16 00:16:28.500 ,7,0,,0,0.,4.8,0.,4.8,,0,0.,4.8,0.,4.8
1980-11-16 00:16:33.300 ,7,0,,0,0.,4.8,0.,4.8,,0,0.,4.8,0.,4.8
1980-11-16 00:16:38.100 ,7,0,,0,0.,4.8,0.,4.8,,0,0.,4.8,0.,4.8
1980-11-16 00:16:42.900 ,7,0,,0,0.,4.8,0.,4.8,,0,0.,4.8,0.,4.8
1980-11-16 00:16:47.700 ,7,0,,0,0.,4.8,0.,4.8,,0,0.,4.8,0.,4.8
1980-11-16 00:16:52.500 ,7,0,,0,0.,4.8,0.,4.8,,0,0.,4.8,0.,4.8
1980-11-16 00:16:57.300 ,7,0,,0,0.,4.8,0.,4.8,,0,0.,4.8,0.,4.8
1980-11-16 00:17:02.100 ,7,0,,0,0.,4.8,0.,4.8,,0,0.,4.8,0.,4.8
1980-11-16 00:17:06.900 ,7,0,,0,0.,4.8,0.,4.8,,0,0.,4.8,0.,4.8
1980-11-16 00:17:11.700 ,7,0,,0,0.,4.8,0.,4.8,,0,0.,4.8,0.,4.8
1980-11-16 00:17:16.500 ,7,0,,0,0.,4.8,1.,4.8,,0,0.,4.8,0.,4.8
1980-11-16 00:17:21.300 ,7,0,,0,0.,4.8,0.,4.8,,0,0.,4.8,0.,4.8
1980-11-16 00:17:26.100 ,6,0,,0,0.,4.8,0.,4.8,,0,0.,4.8,0.,4.8
1980-11-16 00:17:30.900 ,6,0,,0,0.,4.8,0.,4.8,,0,0.,4.8,0.,4.8
1980-11-16 00:17:35.700 ,6,0,,0,0.,4.8,0.,4.8,,0,0.,4.8,0.,4.8
1980-11-16 00:17:40.500 ,6,0,,0,0.,4.8,0.,4.8,,0,0.,4.8,0.,4.8
1980-11-16 00:17:45.300 ,6,0,,0,0.,4.8,0.,4.8,,0,0.,4.8,0.,4.8
1980-11-16 00:17:50.100 ,6,0,,0,0.,4.8,0.,4.8,,0,0.,4.8,0.,4.8
1980-11-16 00:17:54.900 ,6,0,,0,0.,4.8,0.,4.8,,0,0.,4.8,0.,4.8
1980-11-16 00:17:59.700 ,6,0,,0,0.,4.8,0.,4.8,,0,0.,4.8,0.,4.8
1980-11-16 00:18:04.500 ,6,0,,0,0.,4.8,0.,4.8,,0,0.,4.8,0.,4.8
1980-11-16 00:18:09.300 ,6,0,,0,0.,4.8,0.,4.8,,0,0.,4.8,0.,4.8
1980-11-16 00:18:14.100 ,5,0,,0,0.,4.8,0.,4.8,,0,0.,4.8,0.,4.8
1980-11-16 00:18:18.900 ,5,0,,0,0.,4.8,0.,4.8,,0,0.,4.8,0.,4.8
1980-11-16 00:18:23.700 ,5,0,,0,0.,4.8,0.,4.8,,0,0.,4.8,0.,4.8
1980-11-16 00:18:28.500 ,5,0,,0,0.,4.8,0.,4.8,,0,0.,4.8,0.,4.8
1980-11-16 00:18:33.300 ,5,0,,0,0.,4.8,0.,4.8,,0,0.,4.8,0.,4.8
1980-11-16 00:18:38.100 ,5,0,,0,0.,4.8,0.,4.8,,0,0.,4.8,0.,4.8
1980-11-16 00:18:42.900 ,5,0,,0,0.,4.8,0.,4.8,,0,0.,4.8,0.,4.8
1980-11-16 00:18:47.700 ,5,0,,0,0.,4.8,0.,4.8,,0,1.,4.8,0.,4.8
1980-11-16 00:18:52.500 ,5,0,,0,0.,4.8,0.,4.8,,0,0.,4.8,0.,4.8
1980-11-16 00:18:57.300 ,5,0,,0,0.,4.8,0.,4.8,,0,0.,4.8,0.,4.8
1980-11-16 00:19:02.100 ,4,0,,0,0.,4.8,0.,4.8,,0,0.,4.8,0.,4.8
1980-11-16 00:19:06.900 ,4,0,,0,0.,4.8,0.,4.8,,0,0.,4.8,0.,4.8
1980-11-16 00:19:11.700 ,4,0,,0,0.,4.8,0.,4.8,,0,0.,4.8,0.,4.8
1980-11-16 00:19:16.500 ,4,0,,0,0.,4.8,0.,4.8,,0,0.,4.8,0.,4.8
1980-11-16 00:19:21.300 ,4,0,,0,0.,4.8,0.,4.8,,0,0.,4.8,0.,4.8
1980-11-16 00:19:26.100 ,4,0,,0,0.,4.8,0.,4.8,,0,0.,4.8,0.,4.8
1980-11-16 00:19:30.900 ,4,0,,0,0.,4.8,0.,4.8,,0,0.,4.8,0.,4.8
1980-11-16 00:19:35.700 ,4,0,,0,0.,4.8,0.,4.8,,0,0.,4.8,0.,4.8
1980-11-16 00:19:40.500 ,4,0,,0,0.,4.8,0.,4.8,,0,0.,4.8,0.,4.8
1980-11-16 00:19:45.300 ,4,0,,0,0.,4.8,0.,4.8,,0,0.,4.8,0.,4.8
1980-11-16 00:19:50.100 ,3,0,,0,0.,4.8,0.,4.8,,0,0.,4.8,0.,4.8
1980-11-16 00:19:54.900 ,3,0,,0,0.,4.8,0.,4.8,,0,0.,4.8,0.,4.8
1980-11-16 00:19:59.700 ,3,0,,0,0.,4.8,0.,4.8,,0,0.,4.8,0.,4.8
1980-11-16 00:20:04.500 ,3,0,,0,0.,4.8,0.,4.8,,0,0.,4.8,0.,4.8
1980-11-16 00:20:09.300 ,3,0,,0,0.,4.8,0.,4.8,,0,0.,4.8,0.,4.8
1980-11-16 00:20:14.100 ,3,0,,0,0.,4.8,0.,4.8,,0,0.,4.8,0.,4.8
1980-11-16 00:20:18.900 ,3,0,,0,0.,4.8,0.,4.8,,0,0.,4.8,0.,4.8
1980-11-16 00:20:23.700 ,3,0,,0,0.,4.8,0.,4.8,,0,0.,4.8,0.,4.8
1980-11-16 00:20:28.500 ,3,0,,0,0.,4.8,0.,4.8,,0,0.,4.8,0.,4.8
1980-11-16 00:20:33.300 ,3,0,,0,0.,4.8,0.,4.8,,0,0.,4.8,0.,4.8
1980-11-16 00:20:38.100 ,2,0,,0,0.,4.8,0.,4.8,,0,0.,4.8,0.,4.8
1980-11-16 00:20:42.900 ,2,0,,0,0.,4.8,0.,4.8,,0,0.,4.8,0.,4.8
1980-11-16 00:20:47.700 ,2,0,,0,0.,4.8,0.,4.8,,0,0.,4.8,0.,4.8
1980-11-16 00:20:52.500 ,2,0,,0,0.,4.8,0.,4.8,,0,0.,4.8,0.,4.8
1980-11-16 00:20:57.300 ,2,0,,0,0.,4.8,0.,4.8,,0,0.,4.8,0.,4.8
1980-11-16 00:21:02.100 ,2,0,,0,0.,4.8,0.,4.8,,0,0.,4.8,0.,4.8
1980-11-16 00:21:06.900 ,2,0,,0,0.,4.8,0.,4.8,,0,0.,4.8,0.,4.8
1980-11-16 00:21:11.700 ,2,0,,0,0.,4.8,0.,4.8,,0,0.,4.8,0.,4.8
1980-11-16 00:21:16.500 ,2,0,,0,0.,4.8,0.,4.8,,0,0.,4.8,0.,4.8
1980-11-16 00:21:21.300 ,2,0,,0,0.,4.8,0.,4.8,,0,0.,4.8,0.,4.8
1980-11-16 00:21:26.100 ,1,0,,0,0.,4.8,0.,4.8,,0,0.,4.8,0.,4.8
1980-11-16 00:21:30.900 ,1,0,,0,0.,4.8,0.,4.8,,0,0.,4.8,0.,4.8
1980-11-16 00:21:35.700 ,1,0,,0,0.,4.8,0.,4.8,,0,0.,4.8,0.,4.8
1980-11-16 00:21:40.500 ,1,0,,0,0.,4.8,0.,4.8,,0,0.,4.8,0.,4.8
1980-11-16 00:21:45.300 ,1,0,,0,0.,4.8,0.,4.8,,0,0.,4.8,0.,4.8
1980-11-16 00:21:50.100 ,1,0,,0,0.,4.8,0.,4.8,,0,0.,4.8,0.,4.8
1980-11-16 00:21:54.900 ,1,0,,0,0.,4.8,0.,4.8,,0,0.,4.8,0.,4.8
1980-11-16 00:21:59.700 ,1,0,,0,0.,4.8,0.,4.8,,0,0.,4.8,0.,4.8
1980-11-16 00:22:04.500 ,1,0,,0,0.,4.8,0.,4.8,,0,0.,4.8,0.,4.8
1980-11-16 00:22:09.300 ,1,0,,0,0.,4.8,0.,4.8,,0,0.,4.8,0.,4.8
1980-11-16 00:22:14.100 ,0,0,,0,0.,4.8,0.,4.8,,0,0.,4.8,0.,4.8
1980-11-16 00:22:18.900 ,0,0,,0,0.,4.8,0.,4.8,,0,0.,4.8,0.,4.8
1980-11-16 00:22:23.700 ,0,0,,0,0.,4.8,0.,4.8,,0,0.,4.8,0.,4.8
1980-11-16 00:22:28.500 ,0,0,,0,0.,4.8,0.,4.8,,0,0.,4.8,0.,4.8
1980-11-16 00:22:33.300 ,0,0,,0,0.,4.8,0.,4.8,,0,0.,4.8,0.,4.8
1980-11-16 00:22:38.100 ,0,0,,0,0.,4.8,0.,4.8,,0,0.,4.8,0.,4.8
1980-11-16 00:22:42.900 ,0,0,,0,0.,4.8,0.,4.8,,0,0.,4.8,0.,4.8
1980-11-16 00:22:47.700 ,0,0,,0,0.,4.8,0.,4.8,,0,0.,4.8,0.,4.8
1980-11-16 00:22:52.500 ,0,0,,0,0.,4.8,0.,4.8,,0,0.,4.8,0.,4.8
1980-11-16 00:22:57.300 ,0,0,,0,0.,4.8,0.,4.8,,0,0.,4.8,0.,4.8
1980-11-16 00:23:02.100 ,0,0,,0,0.,4.8,0.,4.8,,0,0.,4.8,0.,4.8
1980-11-16 00:23:06.900 ,0,0,,0,0.,4.8,0.,4.8,,0,1.,4.8,0.,4.8
1980-11-16 00:23:11.700 ,0,0,,0,0.,4.8,0.,4.8,,0,0.,4.8,0.,4.8
1980-11-16 00:23:16.500 ,0,0,,0,0.,4.8,0.,4.8,,0,0.,4.8,0.,4.8
1980-11-16 00:23:21.300 ,0,0,,0,0.,4.8,0.,4.8,,0,0.,4.8,0.,4.8
1980-11-16 00:23:26.100 ,0,0,,0,0.,4.8,0.,4.8,,0,0.,4.8,0.,4.8
1980-11-16 00:23:30.900 ,0,0,,0,0.,4.8,0.,4.8,,0,0.,4.8,0.,4.8
1980-11-16 00:23:35.700 ,0,0,,0,0.,4.8,1.,4.8,,0,0.,4.8,0.,4.8
1980-11-16 00:23:40.500 ,0,0,,0,0.,4.8,0.,4.8,,0,0.,4.8,0.,4.8
1980-11-16 00:23:45.300 ,0,0,,0,0.,4.8,0.,4.8,,0,0.,4.8,0.,4.8
1980-11-16 00:23:50.100 ,1,0,,0,0.,4.8,0.,4.8,,0,0.,4.8,0.,4.8
1980-11-16 00:23:54.900 ,1,0,,0,0.,4.8,0.,4.8,,0,0.,4.8,0.,4.8
1980-11-16 00:23:59.700 ,1,0,,0,0.,4.8,0.,4.8,,0,0.,4.8,0.,4.8
1980-11-16 00:24:04.500 ,1,0,,0,0.,4.8,0.,4.8,,0,0.,4.8,0.,4.8
1980-11-16 00:24:09.300 ,1,0,,0,0.,4.8,0.,4.8,,0,0.,4.8,0.,4.8
1980-11-16 00:24:14.100 ,1,0,,0,0.,4.8,0.,4.8,,0,0.,4.8,0.,4.8
1980-11-16 00:24:18.900 ,1,0,,0,0.,4.8,0.,4.8,,0,0.,4.8,0.,4.8
1980-11-16 00:24:23.700 ,1,0,,0,0.,4.8,0.,4.8,,0,0.,4.8,0.,4.8
1980-11-16 00:24:28.500 ,1,0,,0,0.,4.8,0.,4.8,,0,0.,4.8,0.,4.8
1980-11-16 00:24:33.300 ,1,0,,0,0.,4.8,0.,4.8,,0,0.,4.8,0.,4.8
1980-11-16 00:24:38.100 ,2,0,,0,0.,4.8,0.,4.8,,0,0.,4.8,0.,4.8
1980-11-16 00:24:42.900 ,2,0,,0,0.,4.8,0.,4.8,,0,0.,4.8,0.,4.8
1980-11-16 00:24:47.700 ,2,0,,0,0.,4.8,0.,4.8,,0,0.,4.8,0.,4.8
1980-11-16 00:24:52.500 ,2,0,,0,0.,4.8,0.,4.8,,0,0.,4.8,0.,4.8
1980-11-16 00:24:57.300 ,2,0,,0,0.,4.8,0.,4.8,,0,0.,4.8,0.,4.8
1980-11-16 00:25:02.100 ,2,0,,0,0.,4.8,0.,4.8,,0,0.,4.8,0.,4.8
1980-11-16 00:25:06.900 ,2,0,,0,0.,4.8,0.,4.8,,0,0.,4.8,0.,4.8
1980-11-16 00:25:11.700 ,2,0,,0,0.,4.8,0.,4.8,,0,0.,4.8,0.,4.8
1980-11-16 00:25:16.500 ,2,0,,0,0.,4.8,0.,4.8,,0,0.,4.8,0.,4.8
1980-11-16 00:25:21.300 ,2,0,,0,0.,4.8,0.,4.8,,0,0.,4.8,0.,4.8
1980-11-16 00:25:26.100 ,3,0,,0,0.,4.8,0.,4.8,,0,0.,4.8,0.,4.8
1980-11-16 00:25:30.900 ,3,0,,0,0.,4.8,0.,4.8,,0,0.,4.8,0.,4.8
1980-11-16 00:25:35.700 ,3,0,,0,0.,4.8,0.,4.8,,0,0.,4.8,0.,4.8
1980-11-16 00:25:40.500 ,3,0,,0,0.,4.8,0.,4.8,,0,0.,4.8,0.,4.8
1980-11-16 00:25:45.300 ,3,0,,0,0.,4.8,0.,4.8,,0,0.,4.8,0.,4.8
1980-11-16 00:25:50.100 ,3,0,,0,0.,4.8,0.,4.8,,0,0.,4.8,0.,4.8
1980-11-16 00:25:54.900 ,3,0,,0,0.,4.8,0.,4.8,,0,0.,4.8,0.,4.8
1980-11-16 00:25:59.700 ,3,0,,0,1.,4.8,0.,4.8,,0,0.,4.8,0.,4.8
1980-11-16 00:26:04.500 ,3,0,,0,0.,4.8,0.,4.8,,0,0.,4.8,0.,4.8
1980-11-16 00:26:09.300 ,3,0,,0,0.,4.8,0.,4.8,,0,0.,4.8,0.,4.8
1980-11-16 00:26:14.100 ,4,0,,0,0.,4.8,0.,4.8,,0,0.,4.8,0.,4.8
1980-11-16 00:26:18.900 ,4,0,,0,0.,4.8,0.,4.8,,0,0.,4.8,0.,4.8
1980-11-16 00:26:23.700 ,4,0,,0,0.,4.8,0.,4.8,,0,0.,4.8,0.,4.8
1980-11-16 00:26:28.500 ,4,0,,0,0.,4.8,0.,4.8,,0,0.,4.8,0.,4.8
1980-11-16 00:26:33.300 ,4,0,,0,0.,4.8,0.,4.8,,0,0.,4.8,0.,4.8
1980-11-16 00:26:38.100 ,4,0,,0,0.,4.8,0.,4.8,,0,0.,4.8,0.,4.8
1980-11-16 00:26:42.900 ,4,0,,0,0.,4.8,0.,4.8,,0,0.,4.8,0.,4.8
1980-11-16 00:26:47.700 ,4,0,,0,0.,4.8,0.,4.8,,0,0.,4.8,0.,4.8
1980-11-16 00:26:52.500 ,4,0,,0,0.,4.8,0.,4.8,,0,0.,4.8,0.,4.8
1980-11-16 00:26:57.300 ,4,0,,0,0.,4.8,0.,4.8,,0,0.,4.8,0.,4.8
1980-11-16 00:27:02.100 ,5,0,,0,0.,4.8,0.,4.8,,0,0.,4.8,0.,4.8
1980-11-16 00:27:06.900 ,5,0,,0,0.,4.8,0.,4.8,,0,0.,4.8,0.,4.8
1980-11-16 00:27:11.700 ,5,0,,0,0.,4.8,0.,4.8,,0,0.,4.8,0.,4.8
1980-11-16 00:27:16.500 ,5,0,,0,0.,4.8,0.,4.8,,0,0.,4.8,0.,4.8
1980-11-16 00:27:21.300 ,5,0,,0,0.,4.8,0.,4.8,,0,0.,4.8,0.,4.8
1980-11-16 00:27:26.100 ,5,0,,0,0.,4.8,0.,4.8,,0,0.,4.8,1.,4.8
1980-11-16 00:27:30.900 ,5,0,,0,0.,4.8,0.,4.8,,0,0.,4.8,0.,4.8
1980-11-16 00:27:35.700 ,5,0,,0,0.,4.8,1.,4.8,,0,0.,4.8,0.,4.8
1980-11-16 00:27:40.500 ,5,0,,0,0.,4.8,0.,4.8,,0,0.,4.8,0.,4.8
1980-11-16 00:27:45.300 ,5,0,,0,0.,4.8,0.,4.8,,0,0.,4.8,0.,4.8
1980-11-16 00:27:50.100 ,6,0,,0,0.,4.8,0.,4.8,,0,0.,4.8,0.,4.8
1980-11-16 00:27:54.900 ,6,0,,0,0.,4.8,0.,4.8,,0,0.,4.8,0.,4.8
1980-11-16 00:27:59.700 ,6,0,,0,0.,4.8,0.,4.8,,0,0.,4.8,0.,4.8
1980-11-16 00:28:04.500 ,6,0,,0,0.,4.8,1.,4.8,,0,0.,4.8,0.,4.8
1980-11-16 00:28:09.300 ,6,0,,0,0.,4.8,0.,4.8,,0,0.,4.8,0.,4.8
1980-11-16 00:28:14.100 ,6,0,,0,0.,4.8,0.,4.8,,0,0.,4.8,0.,4.8
1980-11-16 00:28:18.900 ,6,0,,0,0.,4.8,0.,4.8,,0,0.,4.8,0.,4.8
1980-11-16 00:28:23.700 ,6,0,,0,0.,4.8,0.,4.8,,0,0.,4.8,0.,4.8
1980-11-16 00:28:28.500 ,6,0,,0,0.,4.8,0.,4.8,,0,0.,4.8,0.,4.8
1980-11-16 00:28:33.300 ,6,0,,0,0.,4.8,0.,4.8,,0,0.,4.8,0.,4.8
1980-11-16 00:28:38.100 ,7,0,,0,0.,4.8,0.,4.8,,0,0.,4.8,0.,4.8
1980-11-16 00:28:42.900 ,7,0,,0,0.,4.8,0.,4.8,,0,0.,4.8,0.,4.8
1980-11-16 00:28:47.700 ,7,0,,0,0.,4.8,0.,4.8,,0,0.,4.8,0.,4.8
1980-11-16 00:28:52.500 ,7,0,,0,0.,4.8,0.,4.8,,0,0.,4.8,0.,4.8
1980-11-16 00:28:57.300 ,7,0,,0,0.,4.8,0.,4.8,,0,0.,4.8,0.,4.8
1980-11-16 00:29:02.100 ,7,0,,0,0.,4.8,0.,4.8,,0,0.,4.8,0.,4.8
1980-11-16 00:29:06.900 ,7,0,,0,0.,4.8,0.,4.8,,0,0.,4.8,0.,4.8
1980-11-16 00:29:11.700 ,7,0,,0,0.,4.8,0.,4.8,,0,0.,4.8,0.,4.8
1980-11-16 00:29:16.500 ,7,0,,0,0.,4.8,0.,4.8,,0,0.,4.8,0.,4.8
1980-11-16 00:29:21.300 ,7,0,,0,0.,4.8,0.,4.8,,0,0.,4.8,0.,4.8
1980-11-16 00:29:26.100 ,7,0,,0,0.,4.8,0.,4.8,,0,0.,4.8,0.,4.8
1980-11-16 00:29:30.900 ,7,0,,0,0.,4.8,0.,4.8,,0,0.,4.8,0.,4.8
1980-11-16 00:29:35.700 ,7,0,,0,0.,4.8,0.,4.8,,0,0.,4.8,0.,4.8
1980-11-16 00:29:40.500 ,7,0,,0,0.,4.8,0.,4.8,,0,0.,4.8,0.,4.8
1980-11-16 00:29:45.300 ,7,0,,0,0.,4.8,1.,4.8,,0,0.,4.8,0.,4.8
1980-11-16 00:29:50.100 ,7,0,,0,0.,4.8,0.,4.8,,0,0.,4.8,0.,4.8
1980-11-16 00:29:54.900 ,7,0,,0,0.,4.8,0.,4.8,,0,1.,4.8,0.,4.8
1980-11-16 00:29:59.700 ,7,0,,0,0.,4.8,0.,4.8,,0,0.,4.8,0.,4.8
1980-11-16 00:30:04.500 ,7,0,,0,0.,4.8,0.,4.8,,0,0.,4.8,0.,4.8
1980-11-16 00:30:09.300 ,7,0,,0,0.,4.8,0.,4.8,,0,0.,4.8,0.,4.8
1980-11-16 00:30:14.100 ,6,0,,0,0.,4.8,0.,4.8,,0,0.,4.8,0.,4.8
1980-11-16 00:30:18.900 ,6,0,,0,0.,4.8,0.,4.8,,0,0.,4.8,0.,4.8
1980-11-16 00:30:23.700 ,6,0,,0,0.,4.8,0.,4.8,,0,0.,4.8,0.,4.8